User: anonymous   Login
Location: Kershaw
(34.5481°N, 80.5823°W)
Time: 14:38:37
(UTC+00:00)
Language:

SR - Orbit

View from above orbital plane
View from above orbital plane
View from above satellite
View from above satellite

Ground track
Ground track

The orbit data is extracted from the following two-line orbital elements,

1 00046U 60007B   22275.78595991  .00000900  00000-0  19581-3 0  9990
2 00046  66.6894 303.3808 0214781 228.1489 130.1114 14.49820347260464
Epoch (UTC): 02 October 2022 18:51:46
Eccentricity: 0.0214781
inclination: 66.6894°
perigee height: 573 km
apogee height: 879 km
right ascension of ascending node: 303.3808°
argument of perigee: 228.1489°
revolutions per day: 14.49820347
mean anomaly at epoch: 130.1114°
orbit number at epoch: 26046

The dashed part of the orbit path shows where the satellite is in the earth's shadow,  

DLR